WGS F7 (USA 263)

Last updated on Thu Jul 03 2025 00:02:46 GMT+0000 (Coordinated Universal Time)

1 40746U 15036A 25183.53057465 .00000025 00000+0 00000+0 0 9995 2 40746 0.0161 33.2406 0000421 118.0572 135.5300 1.00269047 36364
UTC large
Height (km)
Speed (km/s)
/
Latitude / Longitude
Inclination (degrees)
Orbital Period (minutes)
Azimuth
Elevation
Range (km)
Doppler Factor

Next 0 passes for location: London (51.5072 / 0.1276)

Sorry there are no passes over London.